Overview Statistics Trail Chart Weather Telemetry Raw packets
 

This is the latest recevied weather packets stored in our database for station/object VK4TOM-13. If no packets are shown the sender has not sent any weather packets the latest 10 day(s).

<< 11 12 13 14 15 16 17 >>
Time Temp. Humidity Pressure Rain* Wind** Luminosity Snow
1788439123 18.33° C 70% 1021.5 hPa 0 mm - - -
1788438522 18.89° C 70% 1021.4 hPa 0 mm - - -
1788437945 19.44° C 70% 1021.5 hPa 0 mm - - -
1788437320 19.44° C 70% 1021.4 hPa 0 mm - - -
1788436719 20° C 70% 1021.4 hPa 0 mm - - -
1788436118 20.56° C 70% 1021.4 hPa 0 mm - - -
1788435516 20.56° C 70% 1021.3 hPa 0 mm - - -
1788434916 21.11° C 70% 1021.2 hPa 0 mm - - -
1788434315 21.67° C 70% 1021 hPa 0 mm - - -
1788433714 21.67° C 70% 1020.9 hPa 0 mm - - -
1788433112 21.67° C 70% 1020.9 hPa 0 mm - - -
1788432511 21.67° C 70% 1020.9 hPa 0 mm - - -
1788431910 21.67° C 70% 1020.8 hPa 0 mm - - -
1788431309 22.22° C 70% 1020.7 hPa 0 mm - - -
1788430708 22.22° C 70% 1020.5 hPa 0 mm - - -
1788430107 22.78° C 70% 1020.5 hPa 0 mm - - -
1788429506 23.33° C 70% 1020.3 hPa 0 mm - - -
1788428905 23.33° C 70% 1020.2 hPa 0 mm - - -
1788428304 23.89° C 67% 1020.1 hPa 0 mm - - -
1788427703 23.89° C 49% 1019.7 hPa 0 mm - - -
1788427102 24.44° C 50% 1019.7 hPa 0 mm - - -
1788426501 24.44° C 49% 1019.3 hPa 0 mm - - -
1788425899 23.89° C 49% 1019.2 hPa 0 mm - - -
1788425298 23.33° C 54% 1019.2 hPa 0 mm - - -
1788424697 23.89° C 59% 1019.2 hPa 0 mm - - -

* Rain since midnight (hover to see other rain measurements)
** Current wind speed in m/s (hover to see current wind gust speed)